This is the latest recevied weather packets stored in our database for station/object DB5ZQ. If no packets are shown the sender has not sent any weather packets the latest 10 day(s).
| Time | Temp. | Humidity | Pressure | Rain* | Wind** | Luminosity | Snow |
|---|---|---|---|---|---|---|---|
| 1787584661 | 25.56° C | 32% | 1014.1 hPa | 0 mm | - | - | - |
| 1787584361 | 26.11° C | 32% | 1014.1 hPa | 0 mm | - | - | - |
| 1787584060 | 25.56° C | 32% | 1014.2 hPa | 0 mm | - | - | - |
| 1787583760 | 26.11° C | 31% | 1014.1 hPa | 0 mm | - | - | - |
| 1787583460 | 26.11° C | 31% | 1014.3 hPa | 0 mm | - | - | - |
| 1787583160 | 26.11° C | 31% | 1014.5 hPa | 0 mm | - | - | - |
| 1787582859 | 26.11° C | 31% | 1014.6 hPa | 0 mm | - | - | - |
| 1787582559 | 26.67° C | 30% | 1014.7 hPa | 0 mm | - | - | - |
| 1787582259 | 26.67° C | 31% | 1014.8 hPa | 0 mm | - | - | - |
| 1787581958 | 26.67° C | 31% | 1014.7 hPa | 0 mm | - | - | - |
| 1787581658 | 26.11° C | 31% | 1014.8 hPa | 0 mm | - | - | - |
| 1787581358 | 26.11° C | 31% | 1014.8 hPa | 0 mm | - | - | - |
| 1787581058 | 26.67° C | 31% | 1014.7 hPa | 0 mm | - | - | - |
| 1787580757 | 26.67° C | 31% | 1014.8 hPa | 0 mm | - | - | - |
| 1787580457 | 26.11° C | 31% | 1014.8 hPa | 0 mm | - | - | - |
| 1787580157 | 26.67° C | 31% | 1014.8 hPa | 0 mm | - | - | - |
| 1787579856 | 26.67° C | 30% | 1014.8 hPa | 0 mm | - | - | - |
| 1787579556 | 26.67° C | 31% | 1014.9 hPa | 0 mm | - | - | - |
| 1787579256 | 27.22° C | 30% | 1015.2 hPa | 0 mm | - | - | - |
| 1787578956 | 27.22° C | 30% | 1015.3 hPa | 0 mm | - | - | - |
| 1787578655 | 26.67° C | 30% | 1015.1 hPa | 0 mm | - | - | - |
| 1787578355 | 27.22° C | 30% | 1015.2 hPa | 0 mm | - | - | - |
| 1787578055 | 27.22° C | 30% | 1015.3 hPa | 0 mm | - | - | - |
| 1787577754 | 26.67° C | 30% | 1015.5 hPa | 0 mm | - | - | - |
| 1787577454 | 26.67° C | 31% | 1015.5 hPa | 0 mm | - | - | - |
* Rain latest hour (hover to see other rain measurements)
** Current wind speed in m/s (hover to see current wind gust speed)